www.pogodaiklimat.ru

Погода и климат >> Архив погоды >> Филиппины >> Малайбалай


ПОГОДА в Малайбалае

  • Прогноз погоды в Малайбалае
  • Монитор погоды в Малайбалае

АРХИВ ПОГОДЫ в Малайбалае

Время (UTC), дата Ветер
(напр.,м/с)
 
Видим.   Явления Облачность Т
(С)
Тd
(С)
f
(%)
Тe
(С)
Тes
(С)
Комфортность P
(гПа)
Po
(гПа)
Тmin
(С)
Tmax
(С)
R
(мм)
R24
(мм)
S
(см)
06 12.06 СЗ 2 18 км осадки на расстоянии {туман} 8/5 450 м
[Cb cap Ci fib]
+30.0 +23.5 68 +41 +47 опасность
перегрева
1009.1 942.5
09 12.06 СВ 1 20 км в посл. час ливневой дождь {туман} 9/4 450 м
[Cb cap Ac As Ci fib]
+27.0 +23.0 79 +36 +37 очень
душно
1009.3 942.3 0.0
12 12.06 штиль 0 18 км {гроза, ливн. осадки} 5/3 450 м
[Cu med, cong Ac cuf]
+25.0 +23.6 92 +34 +34 очень
душно
1010.9 944.2 +31.6 0.0
15 12.06 штиль 0 18 км 3/3 450 м
[Cu hum]
+23.0 +21.9 94 +31 +31 очень
душно
1012.8 946.0
18 12.06 штиль 0 18 км 10/5 450 м
[Cb cap Ac As]
+22.0 +21.7 98 +29 +29 очень
душно
1010.5 943.8
21 12.06 штиль 0 18 км 1/1 450 м
[Cu hum]
+21.2 +20.6 96 +26 +26 душно 1010.2 943.1
00 13.06 штиль 0 20 км мгла {туман} 3/1 450 м
[Cu hum Ci fib]
+24.4 +22.1 87 +32 +40 очень
душно
1010.8 943.7 +20.5 0.0
03 13.06 Ю 2 20 км мгла {туман} 3/3 450 м
[Cu med, cong]
+30.5 +23.3 65 +41 +55 опасность
перегрева
1009.3 942.7
06 13.06 Ю 2 20 км мгла {туман} 4/4 450 м
[Cb cap]
+33.2 +23.5 57 +44 +53 опасность
перегрева
1006.6 940.4
09 13.06 С 1 18 км слаб. ливневой дождь {туман} 10/5 450 м
[Cb cap As trans]
+26.0 +24.0 89 +36 +36 очень
душно
1009.2 942.0 0.5
12 13.06 штиль 0 15 км в посл. час ливневой дождь {гроза} 8/4 450 м
[Cb cap Ac cuf]
+24.0 +22.6 92 +31 +31 очень
душно
1011.5 944.3 +33.5 18
15 13.06 штиль 0 18 км 10/5 450 м
[Cb cap Ac As]
+23.2 +22.9 98 +32 +32 очень
душно
1011.8 945.0
18 13.06 штиль 0 18 км 3/3 450 м
[Cu hum]
+22.8 +22.4 98 +31 +31 очень
душно
1009.4 943.2
21 13.06 штиль 0 18 км 10/5 450 м
[Cb cap Ac As]
+22.5 +22.1 98 +30 +30 очень
душно
1010.3 943.2
00 14.06 штиль 0 18 км мгла {туман} 8/5 450 м
[Cb cap Ac As]
+24.5 +22.9 91 +32 +35 очень
душно
1011.0 943.9 +21.6 18
03 14.06 Ю 2 20 км мгла {туман} 8/3 450 м
[Cu med, cong Ci fib]
+29.0 +23.8 74 +40 +52 опасность
солнечного
удара
1009.9 943.3
06 14.06 ЮВ 2 18 км осадки на расстоянии {туман} 10/5 450 м
[Cb cap Ac As]
+28.0 +24.7 82 +40 +42 очень
душно
1008.8 942.0
09 14.06 штиль 0 15 км слаб. дождь 10/5 450 м
[Cb cap As trans]
+25.0 +23.4 91 +34 +34 очень
душно
1010.2 942.9 1
12 14.06 штиль 0 10 км слаб. дождь 10/5 450 м
[Cb cap As trans]
+23.0 +21.6 92 +31 +31 очень
душно
1012.0 944.6 +30.4 9
15 14.06 штиль 0 18 км 10/5 450 м
[Cb cap Ac As]
+22.2 +21.9 98 +29 +29 очень
душно
1011.8 944.8
18 14.06 штиль 0 18 км 8/3 450 м
[Cu med, cong Ac cuf]
+21.6 +21.0 96 +27 +27 душно 1010.5 943.4
21 14.06 штиль 0 18 км 1/1 450 м
[Cu hum]
+21.2 +20.9 98 +27 +27 душно 1010.7 943.4
00 15.06 штиль 0 18 км мгла {туман} 9/4 450 м
[Cu med, cong Ac As]
+24.0 +21.3 85 +30 +33 очень
душно
1011.7 944.3 +20.5 9
03 15.06 С 1 20 км мгла {туман} 6/3 450 м
[Cu med, cong Ac cuf Ci fib]
+29.0 +23.8 74 +40 +53 опасность
солнечного
удара
1010.2 943.3
06 15.06 С 1 20 км мгла {туман} 9/5 450 м
[Cb cap Ac As]
+30.0 +23.5 68 +41 +44 опасность
перегрева
1007.7 941.0
09 15.06 штиль 0 18 км в посл. час гроза {ливн. осадки} 10/5 450 м
[Cb cap Ac As]
+26.0 +24.7 93 +37 +37 очень
душно
1008.4 941.2 16
12 15.06 штиль 0 10 км гроза, ливневой дождь 10/5 450 м
[Cb cap As trans]
+24.0 +23.3 96 +32 +32 очень
душно
1011.7 944.5 +30.6 17
15 15.06 штиль 0 10 км {гроза, дождь} 10/4 450 м
[Cb cap Ac As]
+23.0 +22.3 96 +31 +31 очень
душно
1011.8 945.0 2
18 15.06 штиль 0 10 км {гроза, дождь} 10/4 450 м
[Cb cap Ac As]
+22.9 +22.2 96 +31 +31 очень
душно
1009.6 943.0 2
21 15.06 штиль 0 15 км 10/4 450 м
[Cu med, cong Ac As]
+22.0 +21.6 98 +29 +29 очень
душно
1010.1 943.0
00 16.06 З 1 20 км мгла {туман} 8/3 450 м
[Cu hum Ac cuf]
+24.5 +22.7 90 +32 +35 очень
душно
1010.9 943.8 +21.6 19 19
03 16.06 ЮЗ 1 20 км мгла {туман} 8/3 450 м
[Cu hum Ac cuf]
+27.8 +24.0 80 +39 +47 очень
душно
1010.7 943.8
06 16.06 ЮВ 1 20 км мгла {туман} 6/3 450 м
[Cb cap Ac As]
+29.5 +23.6 71 +40 +49 очень
душно
1008.2 941.7
09 16.06 З 1 18 км слаб. ливневой дождь {туман} 10/5 450 м
[Cb cap As trans]
+28.3 +23.7 76 +39 +39 очень
душно
1008.7 941.9
12 16.06 штиль 0 10 км слаб. ливневой дождь {туман} 10/5 450 м
[Cb cap As trans]
+25.0 +22.6 87 +33 +33 очень
душно
1011.0 943.9 +30.7 0.2
15 16.06 штиль 0 18 км 10/5 450 м
[Cb cap Ac As]
+24.0 +22.5 91 +31 +31 очень
душно
1012.0 945.0
21 16.06 штиль 0 18 км 10/5 450 м
[Cb cap Ac As]
+23.0 +21.6 92 +31 +31 очень
душно
1010.9 944.0
00 17.06 штиль 0 20 км мгла {туман} 6/3 450 м
[Cu hum Ac cuf Ci fib]
+25.1 +23.2 89 +34 +39 очень
душно
1011.9 944.9 +22.5 0.2
03 17.06 Ю 1 20 км мгла {туман} 8/4 450 м
[Cb cap Ac As Ci fib]
+30.4 +24.7 72 +43 +53 опасность
перегрева
1010.0 943.6
06 17.06 С 1 15 км мгла {туман} 9/5 450 м
[Cb cap Ac As]
+29.8 +24.9 75 +43 +46 опасность
перегрева
1007.7 941.2
09 17.06 штиль 0 18 км мгла {туман} 9/3 450 м
[Cb cap Ac As Cs]
+26.2 +23.7 86 +36 +36 очень
душно
1009.0 942.0 4
12 17.06 штиль 0 18 км {ливн. осадки, туман} 8/3 450 м
[Cb cap Ac As]
+23.5 +22.3 93 +31 +31 очень
душно
1012.0 944.8 +31.5 5
15 17.06 штиль 0 18 км 5/3 450 м
[Cu med, cong Ci fib]
+22.4 +21.6 95 +30 +30 очень
душно
1010.9 944.2
18 17.06 штиль 0 18 км 1/1 450 м
[Cu hum]
+21.0 +20.4 96 +26 +26 душно 1010.4 943.5
21 17.06 штиль 0 18 км 1/1 450 м
[Cu hum]
+20.0 +19.6 98 +23 +23 комфорт 1010.5 943.2
00 18.06 штиль 0 20 км мгла {туман} 3/1 450 м
[Cu hum Cc]
+24.8 +22.4 87 +32 +41 очень
душно
1011.8 944.6 +19.3 5
03 18.06 Ю 1 20 км мгла {туман} 3/3 450 м
[Cu hum]
+29.0 +23.1 71 +39 +56 опасность
солнечного
удара
1010.3 943.4
06 18.06 штиль 0 20 км мгла {туман} 4/1 450 м
[Cu med, cong Ac As Cs]
+30.4 +23.0 65 +41 +55 опасность
перегрева
1007.9 941.2 2
09 18.06 штиль 0 18 км мгла {туман} 8/4 450 м
[Cb cap Ac As Ci fib]
+29.0 +24.5 77 +41 +42 опасность
перегрева
1007.4 940.5
12 18.06 штиль 0 18 км 5/3 450 м
[Cu med, cong Ac cuf]
+25.6 +23.5 88 +35 +35 очень
душно
1009.1 942.3 +30.5
15 18.06 штиль 0 18 км 8/4 450 м
[Cu med, cong Ac cuf]
+24.0 +22.6 92 +31 +31 очень
душно
1009.6 943.0
18 18.06 штиль 0 18 км 10/3 450 м
[Cu med, cong Ac As]
+23.0 +22.2 95 +31 +31 очень
душно
1008.8 942.2
21 18.06 штиль 0 18 км 8/3 450 м
[Cu med, cong Ac cuf Cs]
+22.0 +21.3 96 +29 +29 очень
душно
1009.0 942.2
00 19.06 штиль 0 20 км мгла {туман} 3/1 450 м
[Cu hum Cs]
+25.1 +22.3 84 +33 +41 очень
душно
1010.1 943.2 +21.0 2
03 19.06 З 4 20 км мгла {туман} 3/3 450 м
[Cu med, cong]
+30.0 +23.5 68 +41 +50 опасность
перегрева
1007.7 941.4

 

Местоположение метеостанции Малайбалай (Филиппины): широта 8.15 долгота 125.08 высота над уровнем моря 627 м.

В архиве по умолчанию представлена погода в Малайбалае за последнюю неделю. Архивные данные за месяц целиком и за предыдущие месяцы, начиная с января 2011 года, Вы можете получить, выбрав интересующий диапазон дат из раскрывающегося списка и нажав кнопку "Ввод!".


*Определитесь, кто Вы:
робот инопланетянин человек

Внимание! Время в таблицах - всемирное. Для получения местного времени необходимо прибавить поправку, которая равна 8 ч.

Смотрите также архив погоды в соседних городах и на ближайших метеорологических станциях:

Погода в Кагаян-де-Оро (Филиппины) (93 км)
Погода в Бутуане (Филиппины) (99 км)
Погода в Давао (Филиппины) (131 км)
Погода в Хинатуане (Филиппины) (140 км)
Погода в Котобато (Филиппины) (144 км)
Погода в Серигао Сити (Филиппины) (189 км)
Погода в Дипологе (Филиппины) (197 км)
Погода в Тагбиларане (Филиппины) (210 км)
Погода в Маасине (Филиппины) (222 км)
Погода в Генерал-Сантосе (Филиппины) (226 км)

Пояснения к столбцам:

Ветер - указаны скорость ветра в м/с - средняя за 10 мин, порывы в срок и между сроками (в фигурных скобках) и направление, откуда дует ветер: С - северный, СВ - северо-восточный, В - восточный, ЮВ - юго-восточный, Ю - южный, ЮЗ - юго-западный, З - западный, СЗ - северо-западный.
Видимость - горизонтальная дальность видимости в метрах или километрах. При видимости от 1 до 10 км при отсутствии осадков обычно наблюдается дымка, при ухудшении видимости до 1 км и менее - туман. В сухую погоду видимость может ухудшаться дымом, пылью или мглою.
Явления - указаны атмосферные явления, наблюдавшиеся в срок или в последний час перед сроком; фигурными скобками обозначены явления, наблюдавшиеся между сроками (за 1-3 часа до срока); квадратными скобками обозначены град или гололедные отложения с указанием их диаметра в мм.
Облачность - указаны через наклонную черту общая и нижняя облачность в баллах и высота нижней границы облаков в метрах; квадратными скобками обозначены формы облаков: Ci - перистые, Cs - перисто-слоистые, Cc - перисто-кучевые, Ac - высококучевые, As - высокослоистые, Sc - слоисто-кучевые, Ns - слоисто-дождевые, Cu - кучевые, Cb - кучево-дождевые. Подробнее классификацию облаков см. в Атласе облаков (PDF).
T - Температура воздуха - температура, измеренная на высоте 2 м над землей.
Td - Температура точки росы - температура, при понижении до которой содержащийся в воздухе водяной пар достигнет насыщения.
f - Относительная влажность воздуха - влажноcть воздуха, измеренная на высоте 2 м над землей.
Te - Эффективная температура - температура, которую ощущает одетый по сезону человек в тени. Характеристика душности погоды. При расчете учитывается влияние влажности воздуха и скорости ветра на теплоощущения человека.
Tes - Эффективная температура на солнце - температура, которую ощущает человек, с поправкой на солнечный нагрев. Характеристика знойности погоды. Зависит от высоты солнца над горизонтом, облачности и скорости ветра. Ночью, в пасмурную погоду, а также при ветре 12 м/с и более поправка равна нулю.
P - Атмосферное давление - приведенное к уровню моря атмосферное давление.
Po - Атмосферное давление - измеренное на уровне метеостанции атмосферное давление.
Tmin - Минимальная температура - минимум температуры воздуха на высоте 2 м над землей.
Tmax - Максимальная температура - максимум температуры воздуха на высоте 2 м над землей.
R - Количество осадков - Количество выпавших осадков за период времени, мм. При наведении курсора мыши на число - период времени, за который выпало указанное количество осадков.
R24 - Количество осадков - Количество выпавших осадков за 24 часа, мм.
S - Снежный покров - Высота снежного покрова, см. При наведении курсора мыши на число - состояние снежного покрова и степень покрытия местности в баллах.